sat.trackr.live / text

‹ back to catalog

2025-284B

NORAD 66914 · 2025-284B

PAYLOAD ACTIVE UNKNOWN

§ Identity

Operator
Country
PRC
Launch date
2025-12-05
Launch site
JSC
Launch vehicle
Mass (kg)
RCS (m²)

External: N2YO · Heavens-Above · Gunter

§ Orbital elements

Epoch: 2026-05-24T23:44:47.830272Z

Period
103.05 min
Inclination
80.3971°
Eccentricity
0.0010739
Mean motion
13.97316579 rev/d
Perigee alt
895.3 km
Apogee alt
910.9 km
Semi-major
7,281.2 km
B*
8.3029e-5
RAAN
313.4426°
Arg perigee
300.3721°
Mean anomaly
59.6377°
Rev number
2,424

§ Raw data

2025-284B1 66914U 25284B   26144.98944248  .00000126  00000+0  83029-4 0  99962 66914  80.3971 313.4426 0010739 300.3721  59.6377 13.97316579 24245

JSON: /api/v1/satellites/66914 · /tle

For live sub-satellite position, see the globe view (requires WebGL).

§ Visibility from observer

Set your observer location to see the next 7 days of passes ≥ 10°. The values pass through the URL so the page stays shareable.

No JS? Fill the form by hand. The geolocation button needs JavaScript.